• In Czech Republic
  • List of Countries
  • For 7 days
  • Water Temperature
  • Satellite Maps
  • Weather Map
  • Weather Widgets
  • user-avatar
    Login

    Hourly Weather Shkoder

    Today, 18 August, Friday

    Time Temperature Precipitation Wind Pressure Humidity
    00:00 +22°C° 0 mm 3 mps 741 mmHg 64%
    01:00 +22°C° 0 mm 3 mps 741 mmHg 64%
    02:00 +22°C° 0 mm 3 mps 741 mmHg 65%
    03:00 +21°C° 0 mm 3 mps 741 mmHg 65%
    04:00 +21°C° 0 mm 3 mps 741 mmHg 66%
    05:00 +24°C° 0 mm 3 mps 741 mmHg 62%
    06:00 +25°C° 0 mm 3 mps 741 mmHg 57%
    07:00 +27°C° 0 mm 3 mps 741 mmHg 53%
    08:00 +29°C° 0 mm 3 mps 741 mmHg 46%
    09:00 +31°C° 0 mm 3 mps 741 mmHg 40%
    10:00 +34°C° 0 mm 2 mps 741 mmHg 33%
    11:00 +35°C° 0 mm 3 mps 741 mmHg 31%
    12:00 +36°C° 0 mm 3 mps 741 mmHg 30%
    13:00 +36°C° 0 mm 3 mps 741 mmHg 28%
    14:00 +36°C° 0 mm 3 mps 740 mmHg 29%
    15:00 +36°C° 0 mm 3 mps 740 mmHg 30%
    16:00 +35°C° 0 mm 4 mps 740 mmHg 30%
    17:00 +33°C° 0 mm 3 mps 740 mmHg 36%
    18:00 +29°C° 0 mm 3 mps 740 mmHg 41%
    19:00 +27°C° 0 mm 2 mps 740 mmHg 47%
    20:00 +26°C° 0 mm 2 mps 740 mmHg 47%
    21:00 +26°C° 0 mm 2 mps 740 mmHg 47%
    22:00 +25°C° 0 mm 2 mps 741 mmHg 48%
    23:00 +25°C° 0 mm 2 mps 741 mmHg 49%

    Tomorrow, 19 August, Saturday

    Time Temperature Precipitation Wind Pressure Humidity
    00:00 +24°C° 0 mm 2 mps 741 mmHg 50%
    01:00 +24°C° 0 mm 2 mps 741 mmHg 52%
    02:00 +24°C° 0 mm 2 mps 740 mmHg 52%
    03:00 +23°C° 0 mm 2 mps 740 mmHg 53%
    04:00 +23°C° 0 mm 2 mps 740 mmHg 54%
    05:00 +25°C° 0 mm 2 mps 740 mmHg 50%
    06:00 +26°C° 0 mm 2 mps 740 mmHg 47%
    07:00 +28°C° 0 mm 1 mps 740 mmHg 44%
    08:00 +30°C° 0 mm 1 mps 740 mmHg 39%
    09:00 +32°C° 0 mm 1 mps 740 mmHg 34%
    10:00 +34°C° 0 mm 1 mps 740 mmHg 30%
    11:00 +36°C° 0 mm 2 mps 740 mmHg 29%
    12:00 +36°C° 0 mm 3 mps 740 mmHg 28%
    13:00 +37°C° 0 mm 3 mps 739 mmHg 27%
    14:00 +36°C° 0 mm 3 mps 739 mmHg 29%
    15:00 +35°C° 0 mm 3 mps 739 mmHg 31%
    16:00 +35°C° 0 mm 2 mps 739 mmHg 33%
    17:00 +31°C° 0 mm 2 mps 739 mmHg 39%
    18:00 +28°C° 0 mm 1 mps 738 mmHg 46%
    19:00 +24°C° 0 mm 0 mps 738 mmHg 52%
    20:00 +25°C° 0 mm 1 mps 739 mmHg 52%
    21:00 +25°C° 0 mm 1 mps 739 mmHg 53%
    22:00 +24°C° 0 mm 1 mps 739 mmHg 53%
    23:00 +24°C° 0 mm 2 mps 739 mmHg 53%

    Day after tomorrow, 20 August, Sunday

    Time Temperature Precipitation Wind Pressure Humidity
    00:00 +23°C° 0 mm 2 mps 739 mmHg 52%
    01:00 +23°C° 0 mm 2 mps 739 mmHg 52%
    02:00 +23°C° 0 mm 2 mps 738 mmHg 51%
    03:00 +23°C° 0 mm 2 mps 738 mmHg 50%
    04:00 +21°C° 0 mm 2 mps 738 mmHg 49%
    05:00 +24°C° 0 mm 2 mps 738 mmHg 46%
    06:00 +26°C° 0 mm 2 mps 739 mmHg 42%
    07:00 +28°C° 0 mm 2 mps 739 mmHg 38%
    08:00 +29°C° 0 mm 2 mps 739 mmHg 36%
    09:00 +31°C° 0 mm 2 mps 739 mmHg 33%
    10:00 +34°C° 0 mm 2 mps 739 mmHg 30%
    11:00 +35°C° 0 mm 2 mps 738 mmHg 30%
    12:00 +35°C° 0 mm 3 mps 738 mmHg 31%
    13:00 +35°C° 0 mm 3 mps 738 mmHg 31%
    14:00 +35°C° 0 mm 3 mps 738 mmHg 33%
    15:00 +34°C° 0 mm 3 mps 737 mmHg 35%
    16:00 +32°C° 0 mm 2 mps 737 mmHg 38%
    17:00 +30°C° 0.4 mm 2 mps 737 mmHg 46%
    18:00 +27°C° 0.4 mm 1 mps 738 mmHg 55%
    19:00 +23°C° 0.4 mm 0 mps 738 mmHg 63%
    20:00 +24°C° 0.8 mm 1 mps 738 mmHg 69%
    21:00 +23°C° 0.8 mm 2 mps 738 mmHg 75%
    22:00 +21°C° 0.8 mm 2 mps 739 mmHg 81%
    23:00 +21°C° 0.3 mm 2 mps 739 mmHg 84%

    21 August, Monday

    Time Temperature Precipitation Wind Pressure Humidity
    00:00 +20°C° 0.3 mm 3 mps 739 mmHg 86%
    01:00 +20°C° 0.3 mm 3 mps 739 mmHg 88%
    02:00 +20°C° 0.1 mm 3 mps 738 mmHg 88%
    03:00 +19°C° 0.1 mm 3 mps 738 mmHg 88%
    04:00 +19°C° 0.1 mm 3 mps 738 mmHg 88%
    05:00 +20°C° 0 mm 3 mps 738 mmHg 83%
    06:00 +20°C° 0 mm 3 mps 738 mmHg 78%
    07:00 +21°C° 0 mm 4 mps 739 mmHg 73%
    08:00 +23°C° 0 mm 4 mps 739 mmHg 64%
    09:00 +26°C° 0 mm 3 mps 739 mmHg 55%
    10:00 +28°C° 0 mm 3 mps 739 mmHg 46%
    11:00 +28°C° 0 mm 4 mps 739 mmHg 44%
    12:00 +28°C° 0 mm 4 mps 739 mmHg 42%
    13:00 +29°C° 0 mm 4 mps 738 mmHg 40%
    14:00 +29°C° 0 mm 4 mps 738 mmHg 39%
    15:00 +28°C° 0 mm 5 mps 738 mmHg 39%
    16:00 +28°C° 0 mm 5 mps 738 mmHg 38%
    17:00 +26°C° 0 mm 4 mps 738 mmHg 43%
    18:00 +23°C° 0 mm 4 mps 738 mmHg 48%
    19:00 +21°C° 0 mm 4 mps 739 mmHg 53%
    20:00 +20°C° 0 mm 4 mps 739 mmHg 55%
    21:00 +19°C° 0 mm 4 mps 739 mmHg 57%
    22:00 +18°C° 0 mm 4 mps 740 mmHg 59%
    23:00 +18°C° 0 mm 4 mps 740 mmHg 60%

    22 August, Tuesday

    Time Temperature Precipitation Wind Pressure Humidity
    00:00 +17°C° 0 mm 4 mps 740 mmHg 61%
    01:00 +17°C° 0 mm 4 mps 740 mmHg 61%
    02:00 +15°C° 0 mm 4 mps 740 mmHg 62%
    03:00 +15°C° 0 mm 4 mps 740 mmHg 63%
    04:00 +15°C° 0 mm 4 mps 740 mmHg 64%
    05:00 +17°C° 0 mm 4 mps 740 mmHg 59%
    06:00 +19°C° 0 mm 4 mps 740 mmHg 55%
    07:00 +20°C° 0 mm 4 mps 741 mmHg 50%
    08:00 +22°C° 0 mm 4 mps 741 mmHg 44%
    09:00 +25°C° 0 mm 3 mps 740 mmHg 38%
    10:00 +27°C° 0 mm 3 mps 740 mmHg 32%
    11:00 +28°C° 0 mm 3 mps 740 mmHg 29%
    12:00 +29°C° 0 mm 3 mps 740 mmHg 26%
    13:00 +29°C° 0 mm 3 mps 740 mmHg 24%
    14:00 +29°C° 0 mm 4 mps 739 mmHg 24%
    15:00 +29°C° 0 mm 4 mps 739 mmHg 25%
    16:00 +29°C° 0 mm 4 mps 739 mmHg 26%
    17:00 +26°C° 0 mm 4 mps 739 mmHg 32%
    18:00 +23°C° 0 mm 4 mps 740 mmHg 38%
    19:00 +20°C° 0 mm 3 mps 740 mmHg 44%
    20:00 +19°C° 0 mm 3 mps 740 mmHg 45%
    21:00 +19°C° 0 mm 3 mps 740 mmHg 47%
    22:00 +18°C° 0 mm 3 mps 741 mmHg 48%
    23:00 +17°C° 0 mm 3 mps 741 mmHg 49%

    23 August, Wednesday

    Time Temperature Precipitation Wind Pressure Humidity
    00:00 +17°C° 0 mm 3 mps 741 mmHg 51%
    01:00 +16°C° 0 mm 3 mps 741 mmHg 53%
    02:00 +16°C° 0 mm 3 mps 741 mmHg 53%
    03:00 +16°C° 0 mm 3 mps 741 mmHg 54%
    04:00 +16°C° 0 mm 3 mps 741 mmHg 55%
    05:00 +17°C° 0 mm 3 mps 741 mmHg 51%
    06:00 +19°C° 0 mm 3 mps 741 mmHg 47%
    07:00 +21°C° 0 mm 3 mps 741 mmHg 43%
    08:00 +24°C° 0 mm 3 mps 742 mmHg 37%
    09:00 +26°C° 0 mm 2 mps 742 mmHg 32%
    10:00 +28°C° 0 mm 2 mps 742 mmHg 26%
    11:00 +29°C° 0 mm 2 mps 741 mmHg 24%
    12:00 +30°C° 0 mm 2 mps 741 mmHg 22%
    13:00 +31°C° 0 mm 3 mps 741 mmHg 20%
    14:00 +31°C° 0 mm 3 mps 741 mmHg 21%
    15:00 +30°C° 0 mm 3 mps 741 mmHg 22%
    16:00 +30°C° 0 mm 3 mps 741 mmHg 23%
    17:00 +27°C° 0 mm 3 mps 741 mmHg 30%
    18:00 +25°C° 0 mm 3 mps 741 mmHg 36%
    19:00 +21°C° 0 mm 2 mps 741 mmHg 42%
    20:00 +20°C° 0 mm 2 mps 742 mmHg 42%
    21:00 +20°C° 0 mm 2 mps 742 mmHg 41%
    22:00 +19°C° 0 mm 3 mps 742 mmHg 41%
    23:00 +19°C° 0 mm 3 mps 742 mmHg 43%
    Show more